View from above orbital plane
|
View from above satellite
|
Ground track
|
The orbit data is extracted from the following two-line orbital elements,
1 00011U 59001A 21018.87174313 .00000330 00000-0 17922-3 0 9993
2 00011 32.8691 326.6181 1467283 27.6299 339.5070 11.85732633300555
Epoch (UTC): | 18 January 2021 20:55:18 |
Eccentricity: | 0.1467283 |
inclination: | 32.8691° |
perigee height: | 553 km |
apogee height: | 2937 km |
right ascension of ascending node: | 326.6181° |
argument of perigee: | 27.6299° |
revolutions per day: | 11.85732633 |
mean anomaly at epoch: | 339.5070° |
orbit number at epoch: | 30055 |
The dashed part of the orbit path shows where the satellite is in the earth's shadow,
|
|